This demonstration page uses our WeatherBlox Daily Observations layout. Learn more.

Left ArrowRight Arrow

47.50024, -111.30081

Hourly Observations for April 28, 2018

Temp ( °F °C ) Dew Point ( °F °C ) Humidity (%) Winds ( mph kmh ) Pressure ( in mb ) Visibility ( mi km ) Precip ( " mm )
12:53 am 00:53 Clear 56 13.3 32 0 40 40 SE 7 11 29.75 1007 10 16 0.00 0.00
1:53 am 01:53 Clear 52 11.1 33 0.6 49 49 S 9 15 29.74 1007 10 16 0.00 0.00
2:53 am 02:53 Clear 52 11.1 32 0 47 47 E 5 7 29.72 1006 10 16 0.00 0.00
3:53 am 03:53 Clear 49 9.4 33 0.6 55 55 SE 3 6 29.71 1006 10 16 0.00 0.00
4:53 am 04:53 Clear 46 7.8 33 0.6 61 61 E 3 6 29.70 1006 10 16 0.00 0.00
5:53 am 05:53 Clear 45 7.2 32 0 61 61 SE 3 6 29.69 1005 10 16 0.00 0.00
6:53 am 06:53 Sunny 49 9.4 35 1.7 59 59 SSE 8 13 29.70 1006 10 16 0.00 0.00
7:53 am 07:53 Sunny 54 12.2 36 2.2 51 51 SE 8 13 29.68 1005 10 16 0.00 0.00
8:53 am 08:53 Sunny 57 13.9 37 2.8 47 47 SSE 9 15 29.67 1005 10 16 0.00 0.00
9:53 am 09:53 Sunny 63 17.2 35 1.7 35 35 ENE 7 11 29.65 1004 10 16 0.00 0.00
10:53 am 10:53 Sunny 69 20.6 37 2.8 31 31 SE 8 13 29.60 1003 10 16 0.00 0.00
11:53 am 11:53 Sunny 73 22.8 39 3.9 29 29 VRB 7 11 29.56 1001 10 16 0.00 0.00
12:53 pm 12:53 Mostly Sunny 77 25 38 3.3 24 24 E 8 13 29.54 1000 10 16 0.00 0.00
1:53 pm 13:53 Sunny 79 26.1 38 3.3 23 23 E 12 19 29.52 1000 10 16 0.00 0.00
2:53 pm 14:53 Sunny 81 27.2 38 3.3 21 21 E 10 17 29.49 999 10 16 0.00 0.00
3:53 pm 15:53 Sunny 82 27.8 32 0 16 16 S 12 19 29.46 998 10 16 0.00 0.00
4:53 pm 16:53 Sunny 82 27.8 31 -0.6 16 16 SSW 13 20 29.45 997 10 16 0.00 0.00
5:53 pm 17:53 Sunny 79 26.1 31 -0.6 17 17 S 9 15 29.44 997 10 16 0.00 0.00
6:53 pm 18:53 Sunny 72 22.2 36 2.2 27 27 WSW 9 15 29.43 997 10 16 0.00 0.00
7:53 pm 19:53 Sunny 65 18.3 40 4.4 40 40 W 5 7 29.44 997 10 16 0.00 0.00
8:53 pm 20:53 Clear 62 16.7 38 3.3 41 41 WSW 16 26 29.48 998 10 16 0.00 0.00
9:53 pm 21:53 Clear 60 15.6 38 3.3 44 44 W 18 30 29.51 999 10 16 0.00 0.00
10:53 pm 22:53 Clear 56 13.3 39 3.9 53 53 W 15 24 29.53 1000 10 16 0.00 0.00
11:53 pm 23:53 Clear 54 12.2 39 3.9 57 57 WSW 17 28 29.55 1001 10 16 0.00 0.00

Powered by AerisWeather